DW9080 Weather Reports


time (UTC)temp
C
wind
direction
speed
KPH
gust
KPH
rain 1hr
cm
rain 24hr
cm
rain mn
cm
humidity
%
barometer
mb
20260502220505 30 260 0.0 24.1 0.00 0.00 0.00 18 998.9
20260502220006 30 280 12.9 25.7 0.00 0.00 0.00 18 999.0
20260502215504 30 243 14.5 25.7 0.00 0.00 0.00 17 999.0
20260502215002 30 251 11.3 20.9 0.00 0.00 0.00 18 999.1
20260502214502 30 219 9.7 25.7 0.00 0.00 0.00 17 999.1
20260502214004 30 220 11.3 25.7 0.00 0.00 0.00 17 999.1
20260502213601 30 266 0.0 25.7 0.00 0.00 0.00 18 999.2
20260502213121 30 276 11.3 25.7 0.00 0.00 0.00 19 999.1
20260502212559 30 243 12.9 22.5 0.00 0.00 0.00 17 999.3
20260502212159 30 219 4.8 19.3 0.00 0.00 0.00 18 999.3
20260502211600 30 249 6.4 24.1 0.00 0.00 0.00 17 999.3
20260502211059 30 260 6.4 20.9 0.00 0.00 0.00 18 999.4
20260502210540 30 260 0.0 9.7 0.00 0.00 0.00 18 999.5
20260502210039 30 252 0.0 19.3 0.00 0.00 0.00 18 999.5
20260502205538 30 243 11.3 19.3 0.00 0.00 0.00 17 999.6
20260502205038 30 253 3.2 20.9 0.00 0.00 0.00 17 999.7
20260502204540 30 239 12.9 20.9 0.00 0.00 0.00 18 999.7
20260502204040 30 214 8.0 20.9 0.00 0.00 0.00 18 999.7
20260502203520 30 269 12.9 20.9 0.00 0.00 0.00 17 999.9
20260502203023 30 246 0.0 3.2 0.00 0.00 0.00 17 999.9
20260502202518 30 263 0.0 12.9 0.00 0.00 0.00 17 1000.0
20260502202017 30 358 1.6 12.9 0.00 0.00 0.00 17 1000.1
20260502201517 30 249 0.0 4.8 0.00 0.00 0.00 19 1000.3
20260502201014 29 256 0.0 25.7 0.00 0.00 0.00 17 1000.5
20260502200557 30 253 11.3 25.7 0.00 0.00 0.00 17 1000.5
20260502200059 30 242 0.0 8.0 0.00 0.00 0.00 19 1000.5
20260502195554 30 236 0.0 17.7 0.00 0.00 0.00 18 1000.6
20260502195057 29 233 0.0 22.5 0.00 0.00 0.00 17 1000.6
20260502194553 30 239 4.8 9.7 0.00 0.00 0.00 17 1000.7
20260502194051 29 219 0.0 27.4 0.00 0.00 0.00 18 1000.7
20260502193533 29 282 11.3 27.4 0.00 0.00 0.00 18 1000.8
20260502193033 28 242 0.0 12.9 0.00 0.00 0.00 20 1001.0
20260502192532 29 176 0.0 8.0 0.00 0.00 0.00 19 1001.0
20260502192031 29 253 0.0 8.0 0.00 0.00 0.00 19 1001.2
20260502191537 29 243 0.0 1.6 0.00 0.00 0.00 21 1001.3
20260502191030 28 256 0.0 9.7 0.00 0.00 0.00 20 1001.5
20260502190512 28 65 0.0 19.3 0.00 0.00 0.00 21 1001.5
20260502190012 28 226 9.7 19.3 0.00 0.00 0.00 21 1001.7
20260502185512 28 55 0.0 0.0 0.00 0.00 0.00 22 1001.6
20260502185010 27 57 0.0 1.6 0.00 0.00 0.00 22 1001.8
20260502184511 27 260 0.0 9.7 0.00 0.00 0.00 21 1001.9
20260502184009 27 238 1.6 9.7 0.00 0.00 0.00 22 1002.0
20260502183551 27 262 0.0 1.6 0.00 0.00 0.00 22 1002.0
20260502183050 28 298 0.0 6.4 0.00 0.00 0.00 23 1002.1
20260502182552 27 256 0.0 9.7 0.00 0.00 0.00 22 1002.3
20260502182048 27 244 0.0 1.6 0.00 0.00 0.00 22 1002.3
20260502181549 27 270 0.0 1.6 0.00 0.00 0.00 23 1002.4
20260502181049 27 248 0.0 1.6 0.00 0.00 0.00 24 1002.4
20260502180531 27 224 0.0 1.6 0.00 0.00 0.00 23 1002.5
20260502164043 24 267 0.0 6.4 0.00 0.00 0.00 39 1003.5
20260502163523 24 263 0.0 6.4 0.00 0.00 0.00 41 1003.5
20260502163036 23 283 0.0 0.0 0.00 0.00 0.00 42 1003.5
20260502162521 23 242 0.0 1.6 0.00 0.00 0.00 43 1003.6
20260502162019 23 239 0.0 1.6 0.00 0.00 0.00 43 1003.7
20260502161525 23 255 0.0 1.6 0.00 0.00 0.00 44 1003.7
20260502161016 22 251 0.0 1.6 0.00 0.00 0.00 46 1003.7
20260502160502 22 239 0.0 1.6 0.00 0.00 0.00 45 1003.7
20260502152054 21 248 0.0 0.0 0.00 0.00 0.00 50 1003.8
20260502151554 21 250 0.0 0.0 0.00 0.00 0.00 50 1003.8
20260502151051 20 293 0.0 0.0 0.00 0.00 0.00 50 1003.7
20260502150551 20 264 0.0 0.0 0.00 0.00 0.00 49 1003.8
20260502130505 16 63 0.0 0.0 0.00 0.00 0.00 55 1001.4
20260502123538 -17 0.0 0.0 0.00 0.00 0.00 1000.9
20260502123033 -17 0.0 0.0 0.00 0.00 0.00 1000.8
20260502122524 -17 0.0 0.0 0.00 0.00 0.00 1000.8
20260502122023 -17 0.0 0.0 0.00 0.00 0.00 1000.8
20260502121525 -17 0.0 0.0 0.00 0.00 0.00 1000.7
20260502121020 -17 0.0 0.0 0.00 0.00 0.00 1000.7
20260502120523 -17 0.0 0.0 0.00 0.00 0.00 1000.7
20260502115521 -17 0.0 0.0 0.00 0.00 0.00 1000.5
20260502115018 -17 0.0 0.0 0.00 0.00 0.00 1000.5
20260502114518 -17 0.0 0.0 0.00 0.00 0.00 1000.4
20260502114018 -17 0.0 0.0 0.00 0.00 0.00 1000.3
20260502113520 -17 0.0 0.0 0.00 0.00 0.00 1000.4
20260502113018 -17 0.0 0.0 0.00 0.00 0.00 1000.4
20260502112516 -17 0.0 0.0 0.00 0.00 0.00 1000.4
20260502112015 -17 0.0 0.0 0.00 0.00 0.00 1000.4
20260502111515 -17 0.0 0.0 0.00 0.00 0.00 1000.4
20260502111012 -17 0.0 0.0 0.00 0.00 0.00 1000.4
20260502110511 -17 0.0 0.0 0.00 0.00 0.00 1000.5
20260502110012 -17 0.0 0.0 0.00 0.00 0.00 1000.5
20260502105509 -17 0.0 0.0 0.00 0.00 0.00 1000.4
20260502105008 -17 0.0 0.0 0.00 0.00 0.00 1000.4
20260502104513 -17 0.0 0.0 0.00 0.00 0.00 1000.4
20260502104003 -17 0.0 0.0 0.00 0.00 0.00 1000.5
20260502103502 -17 0.0 0.0 0.00 0.00 0.00 1000.5
20260502103044 -17 0.0 0.0 0.00 0.00 0.00 1000.5
20260502102544 16 91 0.0 1.6 0.00 0.00 0.00 64 1000.6
20260502102044 16 91 0.0 1.6 0.00 0.00 0.00 64 1000.5
20260502101542 17 51 0.0 1.6 0.00 0.00 0.00 64 1000.6
20260502101041 17 77 0.0 0.0 0.00 0.00 0.00 63 1000.6
20260502100541 17 69 0.0 0.0 0.00 0.00 0.00 56 1000.6
20260502091501 17 107 0.0 0.0 0.00 0.00 0.00 37 1000.0
20260502091100 18 107 0.0 0.0 0.00 0.00 0.00 37 1000.0
20260502090600 18 108 0.0 0.0 0.00 0.00 0.00 37 1000.0
20260502090105 18 108 0.0 0.0 0.00 0.00 0.00 37 1000.0
20260502071040 21 233 0.0 1.6 0.00 0.00 0.00 28 999.8
20260502070540 21 236 0.0 1.6 0.00 0.00 0.00 28 999.8
20260502070050 22 240 0.0 1.6 0.00 0.00 0.00 27 999.8
20260502065522 22 231 0.0 3.2 0.00 0.00 0.00 27 999.7
20260502065021 22 236 0.0 1.6 0.00 0.00 0.00 27 999.7
20260502064521 22 219 0.0 1.6 0.00 0.00 0.00 27 999.7
20260502064023 22 228 0.0 1.6 0.00 0.00 0.00 27 999.8
20260502063522 22 248 0.0 1.6 0.00 0.00 0.00 27 999.8
20260502063022 22 234 0.0 1.6 0.00 0.00 0.00 27 999.8
20260502062510 22 250 0.0 1.6 0.00 0.00 0.00 27 999.8
20260502062012 22 225 0.0 1.6 0.00 0.00 0.00 27 999.8
20260502061509 22 205 0.0 1.6 0.00 0.00 0.00 27 999.9
20260502061009 22 193 0.0 1.6 0.00 0.00 0.00 27 999.9
20260502060513 22 188 0.0 1.6 0.00 0.00 0.00 27 999.9
20260502060009 22 207 0.0 1.6 0.00 0.00 0.00 26 1000.0
20260502055509 22 173 0.0 1.6 0.00 0.00 0.00 26 999.9
20260502055009 22 185 0.0 1.6 0.00 0.00 0.00 26 1000.0
20260502054508 22 219 0.0 1.6 0.00 0.00 0.00 26 1000.0
20260502054008 22 232 0.0 0.0 0.00 0.00 0.00 26 1000.0
20260502053508 22 266 0.0 0.0 0.00 0.00 0.00 25 1000.1
20260502053007 23 265 0.0 1.6 0.00 0.00 0.00 25 1000.0
20260502052507 23 251 0.0 1.6 0.00 0.00 0.00 25 999.8
20260502052008 23 250 0.0 1.6 0.00 0.00 0.00 24 999.8
20260502051506 23 278 0.0 1.6 0.00 0.00 0.00 24 999.8
20260502051005 23 242 0.0 1.6 0.00 0.00 0.00 24 999.8
20260502050505 23 236 0.0 1.6 0.00 0.00 0.00 24 999.7
20260502050005 23 263 0.0 1.6 0.00 0.00 0.00 23 999.6
20260502045505 23 277 0.0 1.6 0.00 0.00 0.00 23 999.6
20260502045004 24 274 0.0 1.6 0.00 0.00 0.00 23 999.6
20260502044505 24 259 0.0 3.2 0.00 0.00 0.00 22 999.5
20260502044004 24 252 0.0 1.6 0.00 0.00 0.00 22 999.4
20260502043504 24 233 0.0 1.6 0.00 0.00 0.00 22 999.4
20260502043004 24 246 0.0 1.6 0.00 0.00 0.00 21 999.4
20260502042546 24 263 0.0 1.6 0.00 0.00 0.00 21 999.3
20260502042049 24 232 0.0 1.6 0.00 0.00 0.00 21 999.3
20260502041547 25 236 0.0 1.6 0.00 0.00 0.00 21 999.2
20260502041049 25 229 0.0 1.6 0.00 0.00 0.00 20 999.1
20260502040545 25 236 0.0 1.6 0.00 0.00 0.00 20 999.0
20260502040045 25 249 0.0 1.6 0.00 0.00 0.00 20 998.9
20260502035528 25 252 0.0 1.6 0.00 0.00 0.00 20 998.8
20260502035027 25 245 0.0 1.6 0.00 0.00 0.00 20 998.7
20260502034527 25 243 0.0 1.6 0.00 0.00 0.00 20 998.5
20260502034026 25 229 0.0 1.6 0.00 0.00 0.00 20 998.3
20260502033526 25 191 0.0 1.6 0.00 0.00 0.00 20 998.3
20260502033027 25 235 0.0 1.6 0.00 0.00 0.00 20 998.3
20260502032508 26 214 0.0 11.3 0.00 0.00 0.00 20 998.2
20260502032108 26 183 0.0 16.1 0.00 0.00 0.00 20 998.1
20260502031508 26 217 6.4 11.3 0.00 0.00 0.00 20 998.0
20260502031008 26 232 6.4 9.7 0.00 0.00 0.00 20 998.0
20260502030508 26 240 0.0 20.9 0.00 0.00 0.00 20 997.9
20260502030008 26 233 9.7 20.9 0.00 0.00 0.00 20 997.7
20260502025549 26 235 0.0 3.2 0.00 0.00 0.00 20 997.6
20260502025049 26 231 0.0 16.1 0.00 0.00 0.00 21 997.5
20260502024549 26 243 6.4 17.7 0.00 0.00 0.00 20 997.3
20260502024050 26 252 0.0 1.6 0.00 0.00 0.00 21 997.3
20260502023549 26 233 0.0 1.6 0.00 0.00 0.00 21 997.1
20260502023048 26 239 0.0 1.6 0.00 0.00 0.00 21 997.1
20260502022531 26 249 0.0 1.6 0.00 0.00 0.00 22 997.0
20260502022034 26 203 0.0 1.6 0.00 0.00 0.00 22 996.8
20260502021531 26 250 0.0 1.6 0.00 0.00 0.00 22 996.7
20260502021030 26 260 0.0 1.6 0.00 0.00 0.00 22 996.6
20260502020530 26 239 0.0 1.6 0.00 0.00 0.00 22 996.5
20260502020030 26 246 0.0 1.6 0.00 0.00 0.00 22 996.4
20260502015512 26 243 0.0 1.6 0.00 0.00 0.00 21 996.3
20260502015012 27 229 0.0 1.6 0.00 0.00 0.00 21 996.2
20260502014512 27 242 0.0 1.6 0.00 0.00 0.00 20 996.1
20260502014014 27 250 0.0 1.6 0.00 0.00 0.00 20 996.0
20260502013511 27 274 0.0 1.6 0.00 0.00 0.00 20 995.9
20260502013013 27 251 0.0 1.6 0.00 0.00 0.00 20 995.8
20260502012611 27 273 0.0 1.6 0.00 0.00 0.00 20 995.8
20260502012054 27 276 0.0 1.6 0.00 0.00 0.00 20 995.7
20260502011554 28 255 0.0 8.0 0.00 0.00 0.00 20 995.7
20260502011052 28 255 1.6 8.0 0.00 0.00 0.00 19 995.6
20260502010552 28 252 0.0 1.6 0.00 0.00 0.00 19 995.5
20260502010052 28 246 0.0 1.6 0.00 0.00 0.00 19 995.5
20260502005552 28 245 0.0 3.2 0.00 0.00 0.00 19 995.4
20260502005038 29 246 0.0 9.7 0.00 0.00 0.00 19 995.4
20260502004534 29 226 0.0 9.7 0.00 0.00 0.00 19 995.3
20260502004039 29 304 0.0 8.0 0.00 0.00 0.00 19 995.2
20260502003534 30 238 0.0 16.1 0.00 0.00 0.00 18 995.1
20260502003035 30 205 0.0 1.6 0.00 0.00 0.00 19 995.0
20260502002535 30 252 0.0 1.6 0.00 0.00 0.00 19 994.9
20260502002018 30 244 0.0 19.3 0.00 0.00 0.00 18 994.7
20260502001518 30 243 9.7 19.3 0.00 0.00 0.00 18 994.6
20260502001018 30 246 8.0 19.3 0.00 0.00 0.00 18 994.7
20260502000517 30 249 0.0 1.6 0.00 0.00 0.00 18 994.5
20260502000018 30 267 0.0 1.6 0.00 0.00 0.00 19 994.5
20260501235520 30 236 0.0 1.6 0.00 0.00 0.00 19 994.5
20260501235018 30 253 0.0 1.6 0.00 0.00 0.00 18 994.5
20260501234516 30 240 0.0 1.6 0.00 0.00 0.00 19 994.4
20260501234016 30 251 0.0 1.6 0.00 0.00 0.00 19 994.4
20260501233516 30 298 0.0 1.6 0.00 0.00 0.00 19 994.3
20260501233016 31 252 0.0 1.6 0.00 0.00 0.00 18 994.3
20260501232516 31 253 0.0 1.6 0.00 0.00 0.00 19 994.3
20260501232018 31 239 0.0 8.0 0.00 0.00 0.00 18 994.3
20260501231515 31 224 0.0 19.3 0.00 0.00 0.00 18 994.3
20260501231014 31 210 4.8 24.1 0.00 0.00 0.00 18 994.5
20260501230516 31 269 14.5 24.1 0.00 0.00 0.00 18 994.4
20260501230014 31 243 0.0 1.6 0.00 0.00 0.00 18 994.3
20260501225515 31 253 0.0 1.6 0.00 0.00 0.00 18 994.4
20260501225013 31 245 0.0 14.5 0.00 0.00 0.00 18 994.3
20260501224512 31 243 4.8 22.5 0.00 0.00 0.00 17 994.4
20260501224012 31 266 11.3 22.5 0.00 0.00 0.00 17 994.5
20260501223513 31 245 0.0 20.9 0.00 0.00 0.00 18 994.5
20260501223012 31 242 6.4 22.5 0.00 0.00 0.00 17 994.5
20260501222512 31 177 0.0 24.1 0.00 0.00 0.00 19 994.5
20260501222016 30 244 11.3 24.1 0.00 0.00 0.00 19 994.3
20260501221512 30 243 9.7 24.1 0.00 0.00 0.00 19 994.5
20260501221009 31 246 11.3 27.4 0.00 0.00 0.00 18 994.6